When you browse on this site, cookies collect data to enhance your experience and personalize the content and advertising you see.
Visit our Privacy Policy to learn more. By continuing to use the site, you agree to this use of cookies and data.
  • In Czech Republic
  • List of Countries
  • For 7 days
  • Water Temperature
  • Satellite Maps
  • Weather Map
  • Weather Widgets
  • user-avatar
    Login

    Hourly Weather Sada

    Today, 14 December, Friday

    Time Temperature Precipitation Wind Pressure Humidity
    00:00 +14°C° 0 mm 1 mps 573 mmHg 74%
    01:00 +13°C° 0.1 mm 1 mps 573 mmHg 75%
    02:00 +12°C° 0.1 mm 0 mps 573 mmHg 76%
    03:00 +12°C° 0 mm 0 mps 573 mmHg 75%
    04:00 +11°C° 0 mm 0 mps 573 mmHg 74%
    05:00 +11°C° 0 mm 0 mps 573 mmHg 74%
    06:00 +11°C° 0 mm 0 mps 573 mmHg 74%
    07:00 +12°C° 0 mm 0 mps 573 mmHg 67%
    08:00 +13°C° 0 mm 1 mps 574 mmHg 60%
    09:00 +14°C° 0 mm 1 mps 574 mmHg 53%
    10:00 +15°C° 0 mm 1 mps 575 mmHg 49%
    11:00 +16°C° 0 mm 2 mps 575 mmHg 46%
    12:00 +17°C° 0 mm 2 mps 575 mmHg 42%
    13:00 +17°C° 0.1 mm 2 mps 575 mmHg 44%
    14:00 +17°C° 0.1 mm 2 mps 574 mmHg 46%
    15:00 +18°C° 0.1 mm 3 mps 574 mmHg 48%
    16:00 +17°C° 0.1 mm 2 mps 574 mmHg 53%
    17:00 +16°C° 0.1 mm 2 mps 574 mmHg 59%
    18:00 +15°C° 0.1 mm 2 mps 573 mmHg 64%
    19:00 +15°C° 0.2 mm 2 mps 573 mmHg 65%
    20:00 +14°C° 0.2 mm 1 mps 573 mmHg 65%
    21:00 +14°C° 0.2 mm 1 mps 574 mmHg 66%
    22:00 +14°C° 0.1 mm 1 mps 573 mmHg 65%
    23:00 +14°C° 0.1 mm 1 mps 573 mmHg 64%

    Tomorrow, 15 December, Saturday

    Time Temperature Precipitation Wind Pressure Humidity
    00:00 +13°C° 0.1 mm 1 mps 573 mmHg 64%
    01:00 +13°C° 0.1 mm 1 mps 573 mmHg 62%
    02:00 +13°C° 0.1 mm 1 mps 573 mmHg 61%
    03:00 +12°C° 0.1 mm 1 mps 572 mmHg 59%
    04:00 +12°C° 0 mm 1 mps 572 mmHg 58%
    05:00 +12°C° 0 mm 1 mps 572 mmHg 57%
    06:00 +11°C° 0 mm 1 mps 572 mmHg 56%
    07:00 +12°C° 0 mm 1 mps 573 mmHg 51%
    08:00 +13°C° 0 mm 1 mps 573 mmHg 47%
    09:00 +14°C° 0 mm 2 mps 574 mmHg 43%
    10:00 +15°C° 0 mm 2 mps 574 mmHg 41%
    11:00 +16°C° 0 mm 2 mps 575 mmHg 38%
    12:00 +17°C° 0 mm 2 mps 575 mmHg 36%
    13:00 +17°C° 0 mm 2 mps 574 mmHg 37%
    14:00 +18°C° 0 mm 2 mps 574 mmHg 39%
    15:00 +18°C° 0 mm 2 mps 574 mmHg 40%
    16:00 +17°C° 0.1 mm 2 mps 573 mmHg 46%
    17:00 +16°C° 0.1 mm 2 mps 573 mmHg 51%
    18:00 +15°C° 0.1 mm 2 mps 573 mmHg 57%
    19:00 +15°C° 0.5 mm 2 mps 573 mmHg 57%
    20:00 +14°C° 0.5 mm 2 mps 573 mmHg 57%
    21:00 +13°C° 0.5 mm 3 mps 573 mmHg 56%
    22:00 +14°C° 0.3 mm 2 mps 573 mmHg 55%
    23:00 +13°C° 0.3 mm 2 mps 573 mmHg 53%

    Day after tomorrow, 16 December, Sunday

    Time Temperature Precipitation Wind Pressure Humidity
    00:00 +13°C° 0.3 mm 2 mps 573 mmHg 51%
    01:00 +13°C° 0 mm 2 mps 572 mmHg 52%
    02:00 +12°C° 0 mm 2 mps 572 mmHg 53%
    03:00 +12°C° 0 mm 2 mps 572 mmHg 54%
    04:00 +10°C° 0 mm 2 mps 572 mmHg 55%
    05:00 +10°C° 0 mm 2 mps 572 mmHg 56%
    06:00 +9°C° 0 mm 2 mps 571 mmHg 58%
    07:00 +10°C° 0 mm 2 mps 572 mmHg 54%
    08:00 +12°C° 0 mm 2 mps 573 mmHg 51%
    09:00 +13°C° 0 mm 2 mps 574 mmHg 48%
    10:00 +13°C° 0 mm 3 mps 574 mmHg 44%
    11:00 +14°C° 0 mm 3 mps 575 mmHg 40%
    12:00 +17°C° 0 mm 3 mps 575 mmHg 36%
    13:00 +17°C° 0 mm 3 mps 574 mmHg 35%
    14:00 +17°C° 0 mm 3 mps 574 mmHg 35%
    15:00 +18°C° 0 mm 3 mps 574 mmHg 34%
    16:00 +17°C° 0 mm 3 mps 573 mmHg 39%
    17:00 +16°C° 0 mm 3 mps 573 mmHg 44%
    18:00 +14°C° 0 mm 3 mps 573 mmHg 48%
    19:00 +14°C° 0 mm 3 mps 573 mmHg 49%
    20:00 +13°C° 0 mm 3 mps 573 mmHg 50%
    21:00 +12°C° 0 mm 3 mps 573 mmHg 51%
    22:00 +12°C° 0 mm 3 mps 573 mmHg 52%
    23:00 +12°C° 0 mm 3 mps 573 mmHg 53%

    17 December, Monday

    Time Temperature Precipitation Wind Pressure Humidity
    00:00 +12°C° 0 mm 2 mps 572 mmHg 54%
    01:00 +12°C° 0 mm 2 mps 572 mmHg 55%
    02:00 +10°C° 0 mm 2 mps 571 mmHg 57%
    03:00 +10°C° 0 mm 2 mps 571 mmHg 58%
    04:00 +9°C° 0 mm 2 mps 571 mmHg 59%
    05:00 +9°C° 0 mm 2 mps 571 mmHg 60%
    06:00 +8°C° 0 mm 2 mps 571 mmHg 61%
    07:00 +9°C° 0 mm 2 mps 571 mmHg 57%
    08:00 +10°C° 0 mm 2 mps 572 mmHg 53%
    09:00 +12°C° 0 mm 2 mps 573 mmHg 48%
    10:00 +14°C° 0 mm 2 mps 573 mmHg 44%
    11:00 +15°C° 0 mm 2 mps 574 mmHg 39%
    12:00 +16°C° 0 mm 1 mps 574 mmHg 35%
    13:00 +17°C° 0 mm 2 mps 573 mmHg 36%
    14:00 +17°C° 0 mm 2 mps 573 mmHg 36%
    15:00 +17°C° 0 mm 2 mps 573 mmHg 37%
    16:00 +17°C° 0 mm 2 mps 573 mmHg 43%
    17:00 +16°C° 0 mm 2 mps 573 mmHg 49%
    18:00 +15°C° 0 mm 2 mps 572 mmHg 54%
    19:00 +14°C° 0 mm 2 mps 573 mmHg 56%
    20:00 +14°C° 0 mm 1 mps 573 mmHg 58%
    21:00 +13°C° 0 mm 1 mps 573 mmHg 59%
    22:00 +13°C° 0 mm 1 mps 572 mmHg 59%
    23:00 +13°C° 0 mm 1 mps 572 mmHg 58%

    18 December, Tuesday

    Time Temperature Precipitation Wind Pressure Humidity
    00:00 +12°C° 0 mm 1 mps 572 mmHg 58%
    01:00 +12°C° 0 mm 1 mps 571 mmHg 58%
    02:00 +10°C° 0 mm 0 mps 571 mmHg 58%
    03:00 +10°C° 0 mm 0 mps 571 mmHg 58%
    04:00 +10°C° 0 mm 0 mps 571 mmHg 58%
    05:00 +9°C° 0 mm 0 mps 570 mmHg 58%
    06:00 +9°C° 0 mm 0 mps 570 mmHg 58%
    07:00 +10°C° 0 mm 0 mps 571 mmHg 55%
    08:00 +11°C° 0 mm 0 mps 572 mmHg 52%
    09:00 +12°C° 0 mm 0 mps 573 mmHg 48%
    10:00 +15°C° 0 mm 1 mps 573 mmHg 46%
    11:00 +16°C° 0 mm 1 mps 574 mmHg 45%
    12:00 +17°C° 0 mm 2 mps 574 mmHg 43%
    13:00 +17°C° 0 mm 2 mps 573 mmHg 46%
    14:00 +17°C° 0 mm 2 mps 573 mmHg 48%
    15:00 +17°C° 0 mm 3 mps 573 mmHg 51%
    16:00 +16°C° 0.1 mm 2 mps 572 mmHg 55%
    17:00 +15°C° 0.1 mm 2 mps 572 mmHg 60%
    18:00 +15°C° 0.1 mm 2 mps 572 mmHg 64%
    19:00 +14°C° 0.1 mm 2 mps 572 mmHg 63%
    20:00 +14°C° 0.1 mm 2 mps 573 mmHg 62%
    21:00 +13°C° 0.1 mm 1 mps 573 mmHg 61%
    22:00 +13°C° 0.1 mm 1 mps 572 mmHg 59%
    23:00 +13°C° 0.1 mm 1 mps 572 mmHg 58%

    19 December, Wednesday

    Time Temperature Precipitation Wind Pressure Humidity
    00:00 +12°C° 0.1 mm 1 mps 572 mmHg 56%
    01:00 +12°C° 0 mm 1 mps 571 mmHg 55%
    02:00 +12°C° 0 mm 1 mps 571 mmHg 53%
    03:00 +11°C° 0 mm 1 mps 571 mmHg 52%
    04:00 +11°C° 0 mm 1 mps 571 mmHg 50%
    05:00 +11°C° 0 mm 1 mps 571 mmHg 49%
    06:00 +10°C° 0 mm 1 mps 571 mmHg 48%
    07:00 +11°C° 0 mm 1 mps 572 mmHg 45%
    08:00 +12°C° 0 mm 1 mps 573 mmHg 42%
    09:00 +13°C° 0 mm 2 mps 573 mmHg 38%
    10:00 +14°C° 0 mm 2 mps 574 mmHg 36%
    11:00 +16°C° 0 mm 2 mps 574 mmHg 34%
    12:00 +17°C° 0 mm 2 mps 574 mmHg 32%
    13:00 +17°C° 0 mm 2 mps 574 mmHg 34%
    14:00 +17°C° 0 mm 2 mps 573 mmHg 35%
    15:00 +17°C° 0 mm 3 mps 573 mmHg 37%
    16:00 +16°C° 0.1 mm 3 mps 573 mmHg 40%
    17:00 +14°C° 0.1 mm 3 mps 573 mmHg 44%
    18:00 +14°C° 0.1 mm 3 mps 572 mmHg 48%
    19:00 +13°C° 0 mm 3 mps 573 mmHg 47%
    20:00 +13°C° 0 mm 2 mps 573 mmHg 46%
    21:00 +13°C° 0 mm 2 mps 573 mmHg 45%
    22:00 +12°C° 0 mm 2 mps 572 mmHg 44%
    23:00 +12°C° 0 mm 2 mps 572 mmHg 44%
    Show more